Location: Estes Par
(40.3770°N, 105.5210°W)
Time: 05:16:51
(UTC-07:00)

Vanguard 1 Rocket - All Passes

Search period start: 19 February 2018 00:00
Search period end: 01 March 2018 00:00
Orbit: 655 x 4222 km, 34.3° (Epoch: 18 February)

Date Brightness Start Highest point End Pass type
(mag) Time Alt. Az. Time Alt. Az. Time Alt. Az.
19 Feb - 02:08:40 10° W 02:34:44 74° S 02:55:13 10° ESE visible
19 Feb - 04:41:48 10° W 05:05:28 51° SW 05:20:31 10° SE visible
19 Feb - 07:20:00 10° W 07:31:05 18° WSW 07:39:22 10° SSW daylight
19 Feb - 20:05:20 10° S 20:18:40 27° SE 20:36:53 10° E visible
19 Feb - 22:27:07 10° SW 22:46:49 59° SSE 23:11:56 10° E visible
20 Feb - 00:54:43 10° WSW 01:19:23 75° S 01:42:36 10° E visible
20 Feb - 03:26:15 10° W 03:51:54 63° SSW 04:09:48 10° SE visible
20 Feb - 06:01:19 10° W 06:19:51 31° SW 06:32:11 10° S visible
20 Feb - 18:59:20 10° SSE 19:07:11 15° ESE 19:16:47 10° E visible
20 Feb - 21:16:22 10° SSW 21:33:05 47° SE 21:56:44 10° E visible
20 Feb - 23:41:43 10° WSW 00:04:00 72° SSE 00:29:07 10° E visible
21 Feb - 02:11:30 10° W 02:37:18 71° SSW 02:58:07 10° ESE visible
21 Feb - 04:44:37 10° W 05:07:37 45° SW 05:22:55 10° SSE visible
21 Feb - 07:25:45 10° W 07:32:53 13° WSW 07:38:51 10° SW daylight
21 Feb - 20:06:50 10° S 20:20:30 33° SE 20:40:22 10° E visible
21 Feb - 22:29:44 10° SW 22:49:07 64° SSE 23:14:47 10° E visible
22 Feb - 00:57:35 10° W 01:22:00 75° S 01:45:31 10° ESE visible
22 Feb - 03:29:02 10° W 03:54:14 58° SSW 04:12:26 10° SE visible
22 Feb - 06:04:50 10° W 06:21:42 26° SW 06:33:43 10° S visible
22 Feb - 18:59:13 10° SSE 19:08:56 20° SE 19:22:02 10° E visible
22 Feb - 21:18:43 10° SW 21:35:12 53° SSE 21:59:36 10° E visible
22 Feb - 23:44:35 10° WSW 00:06:33 74° S 00:31:59 10° E visible
23 Feb - 02:14:21 10° W 02:39:47 68° SSW 03:00:55 10° ESE visible
23 Feb - 04:47:36 10° W 05:09:37 39° SW 05:25:03 10° SSE visible
23 Feb - 20:08:48 10° SSW 20:22:26 39° SE 20:43:29 10° E visible
23 Feb - 22:32:29 10° WSW 22:51:33 68° SSE 23:17:35 10° E visible
24 Feb - 01:00:31 10° W 01:24:35 74° S 01:48:22 10° ESE visible
24 Feb - 03:31:53 10° W 03:56:26 52° SSW 04:14:53 10° SE visible
24 Feb - 06:08:58 10° W 06:23:27 20° SW 06:34:35 10° SSW visible
24 Feb - 19:00:17 10° S 19:10:45 25° SE 19:26:06 10° E visible
24 Feb - 21:21:18 10° SW 21:37:28 58° SSE 22:02:22 10° E visible
24 Feb - 23:47:31 10° WSW 00:09:10 75° S 00:34:49 10° E visible
25 Feb - 02:17:13 10° W 02:42:11 63° SSW 03:03:33 10° SE visible
25 Feb - 04:50:49 10° W 05:11:29 33° SW 05:26:49 10° S visible
25 Feb - 17:55:36 10° SE 17:59:56 12° ESE 18:04:58 10° ESE daylight
25 Feb - 20:11:04 10° SSW 20:24:31 45° SE 20:46:23 10° E visible
25 Feb - 22:35:23 10° WSW 22:54:06 71° SSE 23:20:21 10° E visible
26 Feb - 01:03:28 10° W 01:27:08 71° SSW 01:51:07 10° ESE visible
26 Feb - 03:34:49 10° W 03:58:29 46° SW 04:17:05 10° SSE visible
26 Feb - 06:14:17 10° W 06:25:08 15° WSW 06:34:14 10° SSW visible
26 Feb - 19:01:58 10° S 19:12:42 30° SE 19:29:34 10° E visible
26 Feb - 21:24:04 10° SW 21:39:53 63° SSE 22:05:05 10° E visible
26 Feb - 23:50:32 10° W 00:11:48 75° S 00:37:36 10° ESE visible
27 Feb - 02:20:09 10° W 02:44:27 58° SSW 03:06:00 10° SE visible
27 Feb - 04:54:23 10° W 05:13:15 27° SW 05:28:06 10° S visible
27 Feb - 17:54:58 10° SSE 18:01:48 16° ESE 18:10:58 10° E visible
27 Feb - 20:13:36 10° SW 20:26:45 51° SSE 20:49:10 10° E visible
27 Feb - 22:38:22 10° WSW 22:56:44 73° S 23:23:06 10° E visible
28 Feb - 01:06:27 10° W 01:29:36 67° SSW 01:53:43 10° ESE visible
28 Feb - 03:37:56 10° W 04:00:25 40° SW 04:18:57 10° SSE visible
28 Feb - 06:23:53 10° WSW 06:26:49 10° WSW 06:29:39 10° SW visible
28 Feb - 19:04:05 10° SSW 19:14:47 36° SE 19:32:41 10° E visible
28 Feb - 21:26:58 10° WSW 21:42:26 67° SSE 22:07:46 10° E visible
